Regional Weather Roundup
Issued by NWS

Home | Current Version | Previous Version | Graphics & Text | Print | Product List | Glossary On
Versions: 1 2 3 4 5 6 7 8 9 10 11 12 13 14 15 16 17 18 19 20 21 22 23 24 25 26 27 28 29 30 31 32 33 34 35 36 37 38 39 40 41 42 43 44 45 46 47 48 49 50
000
ASUS45 KPSR 300110
RWRAZ

ARIZONA REGIONAL HOURLY WEATHER ROUNDUP
NATIONAL WEATHER SERVICE PHOENIX AZ
600 PM MST TUE JUL 29 2014

NOTE: FAIR INDICATES FEW OR NO CLOUDS BELOW 12,000 FEET WITH NO
SIGNIFICANT WEATHER AND/OR OBSTRUCTIONS TO VISIBILITY.

AZZ001>003-036-300200-
NORTHWEST ARIZONA

CITY           SKY/WX    TMP DP  RH WIND       PRES   REMARKS
BULLHEAD CITY  PTSUNNY  108  50  14 SW14      29.77F HX 104
KINGMAN        MOSUNNY   95  48  20 SW16G22   30.02F
$$

AZZ004>008-015-016-018-300200-
NORTH CENTRAL ARIZONA

CITY           SKY/WX    TMP DP  RH WIND       PRES   REMARKS
GRAND CANYON   PTSUNNY   80  48  32 W12G20    30.26F
WILLIAMS       MOSUNNY   77  48  36 SW10      30.34F
PRESCOTT       MOSUNNY   86  49  27 W12       30.15F
FLAGSTAFF      MOSUNNY   76  48  37 SW14      30.31S
PAYSON         PTSUNNY   88  48  25 W9G16     30.17F
PAGE           MOSUNNY   92  48  22 W7        30.03F
$$

AZZ009>014-017-300200-
NORTHEAST ARIZONA

CITY           SKY/WX    TMP DP  RH WIND       PRES   REMARKS
WINSLOW        MOSUNNY   91  47  21 SW21      30.11F
SAINT JOHNS    PTSUNNY   86  47  25 W9        30.17F
WINDOW ROCK    MOSUNNY   85  38  18 W13G23    30.24F
SHOW LOW       MOSUNNY   79  48  34 SW9       30.28F
$$

AZZ023-300200-
GREATER PHOENIX AREA

CITY           SKY/WX    TMP DP  RH WIND       PRES   REMARKS
PHOENIX        MOSUNNY  106  51  16 W7        29.80F HX 103
BUCKEYE          N/A    106  48  14 W9        29.81F HX 102
GLENDALE       MOSUNNY  108  52  15 S13G22    29.82F HX 105
LUKE AFB       NOT AVBL
DEER VALLEY    SUNNY    103  53  19 SW12      29.83F HX 101
SCOTTSDALE     SUNNY    105  52  17 VRB7      29.85F HX 103
MESA-FALCON    PTSUNNY  106  55  18 W14       29.83F HX 105
MESA-GATEWAY   MOSUNNY  106  55  18 W9        29.85F HX 105
CHANDLER       PTSUNNY  106  52  16 SW14      29.82F HX 103
$$

AZZ027-028-300200-
SOUTHWEST MARICOPA COUNTY AND PINAL COUNTY

CITY           SKY/WX    TMP DP  RH WIND       PRES   REMARKS
CASA GRANDE    MOSUNNY  102  55  21 SW8       29.85F HX 101
GILA BEND      PTCLDY   106  48  14 W7G17     29.82F HX 102
$$

AZZ503-504-507>509-300200-
SOUTHEAST ARIZONA

CITY           SKY/WX    TMP DP  RH WIND       PRES   REMARKS
TUCSON         MOSUNNY  102  51  18 N8        29.96F
DAVIS-MONTHAN  SUNNY    100  53  20 NW13G18   29.94F
RYAN FIELD       N/A    100  52  19 N7        29.94F
NOGALES        PTSUNNY   89  56  32 NE3       30.07F
SIERRA VISTA   PTSUNNY   84  55  37 W7        30.16F
DOUGLAS        PTSUNNY   89  59  36 NW8       30.09F
SAFFORD        PTSUNNY   94  55  26 W15G28    29.96F
$$

AZZ020-021-025-026-031-300200-
SOUTHWEST ARIZONA

CITY           SKY/WX    TMP DP  RH WIND       PRES   REMARKS
YUMA           MOSUNNY  109  50  14 W9        29.76F HX 106
$$

CAZ031-033-041-043-047-048-061-300200-
SOUTHERN CALIFORNIA

CITY           SKY/WX    TMP DP  RH WIND       PRES   REMARKS
DOWNTOWN L.A.  MOSUNNY   77  59  53 VRB5      29.94R
L.A. AIRPORT   PTSUNNY   72  62  71 W14       29.95F
SAN DIEGO      PTSUNNY   78  62  57 NW8       29.97S
BURBANK        MOSUNNY   84  53  34 S10       29.94R
ONTARIO        CLOUDY    88  57  34 SW13      29.94S
RIVERSIDE      PTSUNNY   91  53  27 W10       29.93S
PALM SPRINGS   FAIR     109  44  11 NW15      29.80F HX 104
EL CENTRO NAS  MOSUNNY  109  50  14 CALM      29.74F HX 106
IMPERIAL       PTSUNNY  109  51  14 VRB3      29.74F HX 106
BLYTHE           N/A    N/A N/A N/A MISG      29.76F
NEEDLES        MOSUNNY  109  48  13 W13G20    29.80F HX 105
$$

NVZ020-UTZ003-300200-
SOUTHERN NEVADA-UTAH

CITY           SKY/WX    TMP DP  RH WIND       PRES   REMARKS
LAS VEGAS      MOSUNNY   98  49  18 SW14G20   29.88F
SALT LAKE CITY PTSUNNY   76  58  53 NW5       30.12F
$$

NMZ009-TXZ055-300200-
NEW MEXICO-WEST TEXAS

CITY           SKY/WX    TMP DP  RH WIND       PRES   REMARKS
ALBUQUERQUE    PTSUNNY   76  62  62 E9        30.15F
EL PASO        PTSUNNY   87  59  38 CALM      30.07F
$$


........................KEY........................
SKY/WX - SKY CONDITION/WEATHER
TMP    - TEMPERATURE IN FAHRENHEIT
DP     - DEW POINT IN FAHRENHEIT
RH     - RELATIVE HUMIDITY IN PERCENT
WIND   - DIRECTION AND SPEED IN MILES PER HOUR (MPH)
VRB    - VARIABLE WIND DIRECTION
PRES   - MEAN SEA LEVEL PRESSURE IN INCHES OF MERCURY
         F - FALLING PRESSURE   R - RISING PRESSURE
         S - STEADY PRESSURE
VSB    - VISIBILITY IN MILES
HX     - HEAT INDEX IN FAHRENHEIT
WCI    - WIND CHILL INDEX IN FAHRENHEIT
TC     - TEMPERATURE IN CELSIUS WHICH IS ALSO KNOWN AS
         TEMPERATURE IN CENTIGRADE
AFB    - AIR FORCE BASE
         LUKE AFB IS LUKE AIR FORCE BASE
         DAVIS-MONTHAN IS DAVIS-MONTHAN AIR FORCE BASE
NAS    - NAVAL AIR STATION
         EL CENTRO NAS IS EL CENTRO NAVAL AIR STATION
N/A    - NOT AVAILABLE


USA.gov is the U.S. government's official web portal to all federal, state and local government web resources and services.